| time (UTC) | temp F | wind direction | speed MPH | gust MPH | rain 1hr in | rain 24hr in | rain mn in | humidity % | barometer mb |
| 20260503180432 | 59 | 36 | 0.0 | 1.0 | 0.00 | 0.00 | 0.00 | 33 | 1016.1 |
| 20260503175928 | 59 | 18 | 1.0 | 3.0 | 0.00 | 0.00 | 0.00 | 34 | 1016.5 |
| 20260503175426 | 59 | 127 | 3.0 | 6.0 | 0.00 | 0.00 | 0.00 | 31 | 1016.1 |
| 20260503174921 | 60 | 67 | 1.0 | 4.0 | 0.00 | 0.00 | 0.00 | 31 | 1016.2 |
| 20260503174420 | 59 | 39 | 2.0 | 6.0 | 0.00 | 0.00 | 0.00 | 32 | 1016.2 |
| 20260503173920 | 59 | 355 | 6.0 | 7.0 | 0.00 | 0.00 | 0.00 | 30 | 1016.3 |
| 20260503173416 | 60 | 119 | 0.0 | 3.0 | 0.00 | 0.00 | 0.00 | 32 | 1016.3 |
| 20260503172913 | 60 | 154 | 2.0 | 2.0 | 0.00 | 0.00 | 0.00 | 33 | 1016.3 |
| 20260503172411 | 58 | 144 | 2.0 | 7.0 | 0.00 | 0.00 | 0.00 | 34 | 1016.1 |
| 20260503171907 | 60 | 108 | 1.0 | 3.0 | 0.00 | 0.00 | 0.00 | 30 | 1016.6 |
| 20260503171404 | 60 | 108 | 2.0 | 6.0 | 0.00 | 0.00 | 0.00 | 34 | 1016.6 |
| 20260503170901 | 59 | 84 | 1.0 | 4.0 | 0.00 | 0.00 | 0.00 | 34 | 1016.5 |
| 20260503170357 | 59 | 158 | 3.0 | 3.0 | 0.00 | 0.00 | 0.00 | 33 | 1016.6 |
| 20260503150749 | 53 | 36 | 2.0 | 4.0 | 0.00 | 0.00 | 0.00 | 42 | 1017.7 |
| 20260503150245 | 53 | 43 | 3.0 | 3.0 | 0.00 | 0.00 | 0.00 | 39 | 1017.6 |
| 20260503140210 | 50 | 49 | 5.0 | 6.0 | 0.00 | 0.00 | 0.00 | 43 | 1017.3 |
| 20260503131140 | 46 | 43 | 2.0 | 7.0 | 0.00 | 0.00 | 0.00 | 52 | 1017.5 |
| 20260503130637 | 46 | 213 | 2.0 | 3.0 | 0.00 | 0.00 | 0.00 | 50 | 1017.5 |
| 20260503130135 | 47 | 15 | 3.0 | 6.0 | 0.00 | 0.00 | 0.00 | 51 | 1017.3 |
| 20260503110527 | 34 | 51 | 0.0 | 0.0 | 0.00 | 0.00 | 0.00 | 89 | 1016.7 |
| 20260503090414 | 40 | 54 | 0.0 | 0.0 | 0.00 | 0.00 | 0.00 | 76 | 1015.2 |
| 20260503081340 | 40 | 50 | 0.0 | 0.0 | 0.00 | 0.00 | 0.00 | 77 | 1015.0 |
| 20260503080837 | 39 | 53 | 0.0 | 0.0 | 0.00 | 0.00 | 0.00 | 79 | 1015.0 |
| 20260503080334 | 39 | 50 | 0.0 | 0.0 | 0.00 | 0.00 | 0.00 | 79 | 1014.9 |
| 20260503072811 | 40 | 46 | 0.0 | 1.0 | 0.00 | 0.00 | 0.00 | 76 | 1014.8 |
| 20260503072308 | 40 | 55 | 0.0 | 0.0 | 0.00 | 0.00 | 0.00 | 77 | 1014.7 |
| 20260503071804 | 39 | 79 | 1.0 | 1.0 | 0.00 | 0.00 | 0.00 | 75 | 1014.7 |
| 20260503071301 | 39 | 52 | 0.0 | 0.0 | 0.00 | 0.00 | 0.00 | 79 | 1014.4 |
| 20260503070757 | 39 | 53 | 0.0 | 0.0 | 0.00 | 0.00 | 0.00 | 79 | 1014.6 |
| 20260503070255 | 39 | 50 | 0.0 | 0.0 | 0.00 | 0.00 | 0.00 | 78 | 1014.7 |
| 20260503060220 | 43 | 64 | 0.0 | 2.0 | 0.00 | 0.00 | 0.00 | 68 | 1014.3 |
| 20260503054707 | 44 | 197 | 1.0 | 4.0 | 0.00 | 0.00 | 0.00 | 68 | 1014.3 |
| 20260503054205 | 44 | 61 | 0.0 | 2.0 | 0.00 | 0.00 | 0.00 | 68 | 1014.5 |
| 20260503053702 | 44 | 71 | 1.0 | 4.0 | 0.00 | 0.00 | 0.00 | 67 | 1014.4 |
| 20260503053201 | 43 | 128 | 2.0 | 3.0 | 0.00 | 0.00 | 0.00 | 67 | 1014.4 |
| 20260503052657 | 44 | 111 | 1.0 | 2.0 | 0.00 | 0.00 | 0.00 | 70 | 1014.4 |
| 20260503052153 | 44 | 51 | 0.0 | 0.0 | 0.00 | 0.00 | 0.00 | 69 | 1014.3 |
| 20260503051648 | 44 | 57 | 1.0 | 2.0 | 0.00 | 0.00 | 0.00 | 68 | 1014.4 |
| 20260503051146 | 44 | 58 | 1.0 | 2.0 | 0.00 | 0.00 | 0.00 | 66 | 1014.1 |
| 20260503050643 | 44 | 103 | 1.0 | 2.0 | 0.00 | 0.00 | 0.00 | 69 | 1014.1 |
| 20260503050140 | 44 | 55 | 0.0 | 1.0 | 0.00 | 0.00 | 0.00 | 70 | 1014.4 |
| 20260503045637 | 44 | 90 | 1.0 | 1.0 | 0.00 | 0.00 | 0.00 | 69 | 1014.4 |
| 20260503045134 | 44 | 68 | 0.0 | 2.0 | 0.00 | 0.00 | 0.00 | 70 | 1014.4 |
| 20260503044631 | 44 | 91 | 2.0 | 2.0 | 0.00 | 0.00 | 0.00 | 69 | 1014.5 |
| 20260503044129 | 43 | 97 | 2.0 | 2.0 | 0.00 | 0.00 | 0.00 | 69 | 1014.4 |
| 20260503043625 | 43 | 63 | 1.0 | 2.0 | 0.00 | 0.00 | 0.00 | 72 | 1014.4 |
| 20260503043122 | 44 | 78 | 1.0 | 2.0 | 0.00 | 0.00 | 0.00 | 69 | 1014.3 |
| 20260503042618 | 44 | 66 | 0.0 | 1.0 | 0.00 | 0.00 | 0.00 | 70 | 1014.5 |
| 20260503042114 | 43 | 58 | 0.0 | 1.0 | 0.00 | 0.00 | 0.00 | 70 | 1014.6 |
| 20260503041611 | 44 | 65 | 0.0 | 2.0 | 0.00 | 0.00 | 0.00 | 69 | 1014.5 |
| 20260503041109 | 44 | 305 | 2.0 | 2.0 | 0.00 | 0.00 | 0.00 | 67 | 1014.5 |
| 20260503040606 | 44 | 55 | 1.0 | 1.0 | 0.00 | 0.00 | 0.00 | 67 | 1014.3 |
| 20260503040103 | 44 | 104 | 1.0 | 2.0 | 0.00 | 0.00 | 0.00 | 67 | 1014.4 |
| 20260503035600 | 44 | 334 | 1.0 | 2.0 | 0.00 | 0.00 | 0.00 | 68 | 1014.3 |
| 20260503035058 | 45 | 205 | 2.0 | 3.0 | 0.00 | 0.00 | 0.00 | 66 | 1014.3 |
| 20260503034555 | 45 | 330 | 2.0 | 3.0 | 0.00 | 0.00 | 0.00 | 65 | 1014.1 |
| 20260503034052 | 45 | 102 | 1.0 | 3.0 | 0.00 | 0.00 | 0.00 | 65 | 1014.2 |
| 20260503033549 | 45 | 139 | 2.0 | 3.0 | 0.00 | 0.00 | 0.00 | 64 | 1014.1 |
| 20260503033047 | 45 | 246 | 4.0 | 6.0 | 0.00 | 0.00 | 0.00 | 63 | 1014.2 |
| 20260503032545 | 46 | 228 | 6.0 | 8.0 | 0.00 | 0.00 | 0.00 | 62 | 1014.1 |
| 20260503032043 | 46 | 327 | 3.0 | 6.0 | 0.00 | 0.00 | 0.00 | 62 | 1014.1 |
| 20260503031540 | 46 | 209 | 2.0 | 7.0 | 0.00 | 0.00 | 0.00 | 62 | 1014.1 |
| 20260503031037 | 46 | 204 | 4.0 | 7.0 | 0.00 | 0.00 | 0.00 | 61 | 1014.1 |
| 20260503030533 | 46 | 258 | 2.0 | 8.0 | 0.00 | 0.00 | 0.00 | 61 | 1014.1 |
| 20260503030031 | 46 | 199 | 5.0 | 8.0 | 0.00 | 0.00 | 0.00 | 60 | 1014.2 |
| 20260503025527 | 46 | 221 | 2.0 | 2.0 | 0.00 | 0.00 | 0.00 | 59 | 1014.0 |
| 20260503025025 | 46 | 50 | 0.0 | 4.0 | 0.00 | 0.00 | 0.00 | 58 | 1014.0 |
| 20260503024521 | 46 | 75 | 2.0 | 2.0 | 0.00 | 0.00 | 0.00 | 58 | 1014.1 |
| 20260503024018 | 47 | 53 | 0.0 | 4.0 | 0.00 | 0.00 | 0.00 | 56 | 1014.2 |
| 20260503023515 | 47 | 59 | 0.0 | 2.0 | 0.00 | 0.00 | 0.00 | 56 | 1014.2 |
| 20260503023012 | 47 | 95 | 0.0 | 1.0 | 0.00 | 0.00 | 0.00 | 57 | 1014.4 |
| 20260503022508 | 48 | 47 | 0.0 | 2.0 | 0.00 | 0.00 | 0.00 | 53 | 1014.1 |
| 20260503022003 | 48 | 317 | 1.0 | 3.0 | 0.00 | 0.00 | 0.00 | 52 | 1014.1 |
| 20260503021500 | 49 | 52 | 3.0 | 4.0 | 0.00 | 0.00 | 0.00 | 49 | 1014.2 |
| 20260503020957 | 49 | 111 | 2.0 | 2.0 | 0.00 | 0.00 | 0.00 | 51 | 1014.1 |
| 20260503020454 | 49 | 51 | 0.0 | 2.0 | 0.00 | 0.00 | 0.00 | 50 | 1014.0 |
| 20260503015951 | 49 | 33 | 0.0 | 1.0 | 0.00 | 0.00 | 0.00 | 49 | 1014.0 |
| 20260503015448 | 50 | 53 | 0.0 | 3.0 | 0.00 | 0.00 | 0.00 | 51 | 1014.0 |
| 20260503014944 | 50 | 129 | 2.0 | 2.0 | 0.00 | 0.00 | 0.00 | 48 | 1013.6 |
| 20260503014441 | 50 | 51 | 0.0 | 1.0 | 0.00 | 0.00 | 0.00 | 49 | 1013.8 |
| 20260503013939 | 50 | 65 | 1.0 | 2.0 | 0.00 | 0.00 | 0.00 | 46 | 1013.9 |
| 20260503013436 | 50 | 83 | 1.0 | 1.0 | 0.00 | 0.00 | 0.00 | 47 | 1013.7 |
| 20260503012933 | 50 | 104 | 2.0 | 2.0 | 0.00 | 0.00 | 0.00 | 47 | 1013.7 |
| 20260503012431 | 50 | 56 | 0.0 | 2.0 | 0.00 | 0.00 | 0.00 | 45 | 1013.8 |
| 20260503011926 | 50 | 77 | 1.0 | 1.0 | 0.00 | 0.00 | 0.00 | 48 | 1013.6 |
| 20260503011424 | 51 | 41 | 0.0 | 1.0 | 0.00 | 0.00 | 0.00 | 47 | 1013.6 |
| 20260503010921 | 51 | 178 | 2.0 | 2.0 | 0.00 | 0.00 | 0.00 | 47 | 1013.4 |
| 20260503010418 | 51 | 101 | 1.0 | 2.0 | 0.00 | 0.00 | 0.00 | 46 | 1013.4 |
| 20260503005915 | 51 | 47 | 0.0 | 2.0 | 0.00 | 0.00 | 0.00 | 44 | 1013.4 |
| 20260503005412 | 51 | 100 | 2.0 | 2.0 | 0.00 | 0.00 | 0.00 | 44 | 1013.2 |
| 20260503004908 | 51 | 78 | 0.0 | 2.0 | 0.00 | 0.00 | 0.00 | 43 | 1013.2 |
| 20260503004405 | 51 | 340 | 2.0 | 6.0 | 0.00 | 0.00 | 0.00 | 42 | 1013.0 |
| 20260503003903 | 51 | 51 | 1.0 | 4.0 | 0.00 | 0.00 | 0.00 | 43 | 1013.0 |
| 20260503003359 | 51 | 81 | 0.0 | 3.0 | 0.00 | 0.00 | 0.00 | 45 | 1012.7 |
| 20260503002857 | 51 | 102 | 0.0 | 3.0 | 0.00 | 0.00 | 0.00 | 43 | 1012.8 |
| 20260503002354 | 52 | 77 | 1.0 | 1.0 | 0.00 | 0.00 | 0.00 | 45 | 1012.7 |
| 20260503001850 | 51 | 72 | 1.0 | 3.0 | 0.00 | 0.00 | 0.00 | 43 | 1012.7 |
| 20260503001346 | 52 | 68 | 1.0 | 1.0 | 0.00 | 0.00 | 0.00 | 42 | 1012.6 |
| 20260503000844 | 52 | 136 | 0.0 | 1.0 | 0.00 | 0.00 | 0.00 | 43 | 1012.6 |
| 20260503000341 | 52 | 74 | 0.0 | 2.0 | 0.00 | 0.00 | 0.00 | 42 | 1012.6 |
| 20260502235838 | 52 | 106 | 1.0 | 2.0 | 0.00 | 0.00 | 0.00 | 42 | 1012.4 |
| 20260502235335 | 52 | 27 | 2.0 | 3.0 | 0.00 | 0.00 | 0.00 | 44 | 1012.4 |
| 20260502234832 | 52 | 40 | 1.0 | 6.0 | 0.00 | 0.00 | 0.00 | 42 | 1012.4 |
| 20260502234329 | 53 | 44 | 1.0 | 2.0 | 0.00 | 0.00 | 0.00 | 42 | 1012.3 |
| 20260502233826 | 53 | 81 | 2.0 | 2.0 | 0.00 | 0.00 | 0.00 | 40 | 1012.2 |
| 20260502233322 | 53 | 76 | 1.0 | 3.0 | 0.00 | 0.00 | 0.00 | 42 | 1011.9 |
| 20260502232819 | 53 | 149 | 2.0 | 4.0 | 0.00 | 0.00 | 0.00 | 39 | 1012.2 |
| 20260502232315 | 54 | 50 | 2.0 | 4.0 | 0.00 | 0.00 | 0.00 | 38 | 1012.4 |
| 20260502231812 | 54 | 54 | 0.0 | 4.0 | 0.00 | 0.00 | 0.00 | 38 | 1012.1 |
| 20260502231310 | 54 | 72 | 2.0 | 3.0 | 0.00 | 0.00 | 0.00 | 39 | 1012.1 |
| 20260502230808 | 54 | 46 | 0.0 | 2.0 | 0.00 | 0.00 | 0.00 | 37 | 1012.2 |
| 20260502230306 | 54 | 47 | 3.0 | 4.0 | 0.00 | 0.00 | 0.00 | 38 | 1012.2 |
| 20260502225802 | 55 | 202 | 4.0 | 7.0 | 0.00 | 0.00 | 0.00 | 37 | 1012.4 |
| 20260502225259 | 55 | 171 | 3.0 | 8.0 | 0.00 | 0.00 | 0.00 | 37 | 1012.0 |
| 20260502224755 | 55 | 256 | 1.0 | 4.0 | 0.00 | 0.00 | 0.00 | 38 | 1012.1 |
| 20260502224252 | 55 | 25 | 2.0 | 8.0 | 0.00 | 0.00 | 0.00 | 38 | 1012.1 |
| 20260502223749 | 56 | 24 | 4.0 | 8.0 | 0.00 | 0.00 | 0.00 | 38 | 1012.0 |
| 20260502223248 | 56 | 14 | 2.0 | 2.0 | 0.00 | 0.00 | 0.00 | 39 | 1011.9 |
| 20260502222745 | 56 | 153 | 1.0 | 2.0 | 0.00 | 0.00 | 0.00 | 39 | 1011.8 |
| 20260502222242 | 57 | 51 | 0.0 | 7.0 | 0.00 | 0.00 | 0.00 | 36 | 1012.1 |
| 20260502221737 | 57 | 12 | 1.0 | 3.0 | 0.00 | 0.00 | 0.00 | 36 | 1011.9 |
| 20260502221234 | 57 | 5 | 1.0 | 2.0 | 0.00 | 0.00 | 0.00 | 37 | 1012.2 |
| 20260502220731 | 57 | 60 | 2.0 | 6.0 | 0.00 | 0.00 | 0.00 | 37 | 1012.0 |
| 20260502220227 | 58 | 225 | 4.0 | 6.0 | 0.00 | 0.00 | 0.00 | 36 | 1012.0 |
| 20260502215724 | 59 | 153 | 2.0 | 3.0 | 0.00 | 0.00 | 0.00 | 35 | 1011.9 |
| 20260502215221 | 59 | 20 | 4.0 | 7.0 | 0.00 | 0.00 | 0.00 | 34 | 1011.9 |
| 20260502214718 | 57 | 221 | 4.0 | 4.0 | 0.00 | 0.00 | 0.00 | 36 | 1011.8 |
| 20260502214215 | 57 | 213 | 4.0 | 6.0 | 0.00 | 0.00 | 0.00 | 36 | 1011.8 |
| 20260502213712 | 57 | 206 | 2.0 | 4.0 | 0.00 | 0.00 | 0.00 | 37 | 1011.7 |
| 20260502213210 | 58 | 59 | 0.0 | 6.0 | 0.00 | 0.00 | 0.00 | 36 | 1011.6 |
| 20260502212708 | 58 | 26 | 1.0 | 11.0 | 0.00 | 0.00 | 0.00 | 36 | 1011.8 |
| 20260502212206 | 59 | 301 | 3.0 | 4.0 | 0.00 | 0.00 | 0.00 | 36 | 1011.6 |
| 20260502211702 | 57 | 103 | 2.0 | 7.0 | 0.00 | 0.00 | 0.00 | 36 | 1011.6 |
| 20260502211159 | 57 | 205 | 2.0 | 8.0 | 0.00 | 0.00 | 0.00 | 38 | 1011.6 |
| 20260502210656 | 58 | 225 | 5.0 | 6.0 | 0.00 | 0.00 | 0.00 | 37 | 1011.6 |
| 20260502210153 | 58 | 229 | 4.0 | 7.0 | 0.00 | 0.00 | 0.00 | 36 | 1011.7 |
| 20260502205650 | 58 | 115 | 1.0 | 2.0 | 0.00 | 0.00 | 0.00 | 35 | 1011.9 |
| 20260502205146 | 59 | 87 | 2.0 | 2.0 | 0.00 | 0.00 | 0.00 | 38 | 1011.8 |
| 20260502204643 | 58 | 213 | 4.0 | 6.0 | 0.00 | 0.00 | 0.00 | 39 | 1011.7 |
| 20260502204141 | 57 | 0 | 2.0 | 7.0 | 0.00 | 0.00 | 0.00 | 39 | 1012.0 |
| 20260502203638 | 59 | 236 | 10.0 | 13.0 | 0.00 | 0.00 | 0.00 | 36 | 1011.7 |
| 20260502203136 | 59 | 45 | 1.0 | 11.0 | 0.00 | 0.00 | 0.00 | 38 | 1011.8 |
| 20260502202630 | 59 | 133 | 0.0 | 4.0 | 0.00 | 0.00 | 0.00 | 38 | 1011.6 |
| 20260502202129 | 59 | 165 | 4.0 | 8.0 | 0.00 | 0.00 | 0.00 | 36 | 1011.7 |
| 20260502201625 | 58 | 230 | 1.0 | 6.0 | 0.00 | 0.00 | 0.00 | 38 | 1011.8 |
| 20260502201122 | 59 | 203 | 3.0 | 8.0 | 0.00 | 0.00 | 0.00 | 36 | 1011.7 |
| 20260502200617 | 59 | 296 | 3.0 | 6.0 | 0.00 | 0.00 | 0.00 | 37 | 1011.8 |
| 20260502200115 | 60 | 155 | 4.0 | 8.0 | 0.00 | 0.00 | 0.00 | 37 | 1011.7 |
| 20260502195613 | 59 | 348 | 4.0 | 7.0 | 0.00 | 0.00 | 0.00 | 36 | 1011.8 |
| 20260502195108 | 59 | 83 | 1.0 | 6.0 | 0.00 | 0.00 | 0.00 | 38 | 1011.9 |
| 20260502194606 | 61 | 144 | 2.0 | 4.0 | 0.00 | 0.00 | 0.00 | 36 | 1011.9 |
| 20260502194102 | 59 | 116 | 1.0 | 4.0 | 0.00 | 0.00 | 0.00 | 37 | 1011.9 |
| 20260502193559 | 58 | 324 | 1.0 | 4.0 | 0.00 | 0.00 | 0.00 | 40 | 1011.9 |
| 20260502193056 | 57 | 110 | 3.0 | 6.0 | 0.00 | 0.00 | 0.00 | 38 | 1012.0 |
| 20260502192551 | 58 | 62 | 1.0 | 6.0 | 0.00 | 0.00 | 0.00 | 38 | 1012.1 |
| 20260502192049 | 58 | 13 | 2.0 | 4.0 | 0.00 | 0.00 | 0.00 | 36 | 1012.2 |
| 20260502191546 | 60 | 181 | 3.0 | 6.0 | 0.00 | 0.00 | 0.00 | 36 | 1012.2 |
| 20260502191043 | 58 | 271 | 2.0 | 7.0 | 0.00 | 0.00 | 0.00 | 38 | 1012.2 |
| 20260502190541 | 60 | 38 | 2.0 | 3.0 | 0.00 | 0.00 | 0.00 | 36 | 1012.1 |
| 20260502190038 | 60 | 0 | 2.0 | 4.0 | 0.00 | 0.00 | 0.00 | 35 | 1012.3 |
| 20260502185532 | 60 | 54 | 1.0 | 3.0 | 0.00 | 0.00 | 0.00 | 36 | 1012.2 |
| 20260502185030 | 59 | 112 | 3.0 | 9.0 | 0.00 | 0.00 | 0.00 | 37 | 1012.3 |
| 20260502184525 | 58 | 223 | 4.0 | 4.0 | 0.00 | 0.00 | 0.00 | 37 | 1012.6 |
| 20260502184022 | 62 | 131 | 0.0 | 3.0 | 0.00 | 0.00 | 0.00 | 36 | 1012.6 |
| 20260502183518 | 60 | 247 | 1.0 | 2.0 | 0.00 | 0.00 | 0.00 | 37 | 1012.5 |
| 20260502183014 | 59 | 335 | 2.0 | 7.0 | 0.00 | 0.00 | 0.00 | 37 | 1012.6 |
| 20260502182509 | 59 | 297 | 1.0 | 3.0 | 0.00 | 0.00 | 0.00 | 38 | 1012.7 |
| 20260502182006 | 59 | 358 | 1.0 | 2.0 | 0.00 | 0.00 | 0.00 | 36 | 1012.8 |
| 20260502181504 | 60 | 140 | 0.0 | 6.0 | 0.00 | 0.00 | 0.00 | 38 | 1012.7 |
| 20260502181003 | 59 | 120 | 0.0 | 3.0 | 0.00 | 0.00 | 0.00 | 37 | 1012.8 |